Flag for Australia Weather past 2 weeks in Alice Springs, Northern Territory, Australia

Now
77 °F

Sunny.


Feels Like: 76 °F
Forecast: 62 / 86 °F
Wind: 12 mph from East

Location: Alice Springs Aerodrome

Current Time: Mar 28, 2015 at 12:15:19 PM

Latest Report: Mar 28, 2015 at 11:30 AM


Visibility: N/A

Pressure: 30.18 "Hg

Humidity: 13%

Dew point: 23 °F

Location of Alice SpringsLocation

Historic Weather in Alice Springs — Graph

°F

Alice Springs temperature yesterday

Maximum temperature yesterday: 81 °F (at 2:30 PM)
Minimum temperature yesterday: 57 °F (at 5:00 AM)
Average temperature yesterday: 70 °F

Past Weeks' High & Low Weather Summary

 TemperatureHumidityPressure
High108 °F (Mar 19, 3:30 PM)56% (Mar 22, 2:30 AM)30.30 "Hg (Mar 22, 2:30 AM)
Low55 °F (Mar 15, 4:30 AM)2% (Mar 15, 5:00 PM)29.68 "Hg (Mar 17, 5:00 PM)
Average80 °F25%30.01 "Hg
* Reported Mar 13 10:30 AM — Mar 28 10:30 AM, Alice Springs, Weather by CustomWeather, © 2015

Note: Actual official high and low records may vary slightly from our data, if they occured in-between our weather recording intervals... More about our weather records

Advertising

Alice Springs weather history for previous 24 hours

 ConditionsComfort  
Time TempWeatherWind HumidityBarometerVisibility
10:30 AM
Sat, Mar 28
72 °FSunny.14 mph19%30.21 "Hg10 mi
10:00 AM72 °FSunny.12 mph17%30.21 "Hg10 mi
9:30 AM70 °FSunny.12 mph18%30.21 "Hg10 mi
9:00 AM68 °FSunny.13 mph20%30.21 "Hg10 mi
8:30 AM68 °FSunny.9 mph20%30.21 "Hg10 mi
8:00 AM64 °FSunny.2 mph28%30.18 "Hg10 mi
7:30 AM63 °FSunny.5 mph27%30.18 "Hg10 mi
6:30 AM57 °FSunny.1 mph39%30.15 "Hg10 mi
6:00 AM61 °FClear.7 mph31%30.15 "Hg10 mi
5:30 AM63 °FClear.7 mph25%30.15 "HgN/A
5:00 AM61 °FClear.6 mph31%30.15 "HgN/A
4:30 AM61 °FClear.6 mph34%30.15 "HgN/A
4:00 AM63 °FClear.6 mph30%30.15 "HgN/A
3:30 AM63 °FClear.5 mph32%30.15 "HgN/A
2:30 AM64 °FClear.5 mph26%30.15 "HgN/A
2:00 AM64 °FClear.6 mph28%30.15 "HgN/A
1:30 AM63 °FClear.6 mph34%30.18 "HgN/A
1:00 AM66 °FClear.5 mph26%30.18 "HgN/A
12:30 AM66 °FClear.7 mph24%30.18 "HgN/A
12:00 AM66 °FClear.6 mph26%30.18 "HgN/A
11:30 PM
Fri, Mar 27
66 °FClear.7 mph26%30.18 "HgN/A
10:30 PM68 °FClear.6 mph21%30.18 "HgN/A
10:00 PM70 °FClear.6 mph21%30.18 "HgN/A
9:30 PM72 °FClear.7 mph16%30.18 "HgN/A
9:00 PM72 °FClear.7 mph16%30.18 "HgN/A
8:30 PM72 °FClear.8 mph16%30.18 "HgN/A
8:00 PM72 °FClear.8 mph16%30.18 "HgN/A
7:30 PM73 °FClear.8 mph15%30.15 "HgN/A
7:00 PM75 °FClear.9 mph12%30.15 "HgN/A
6:30 PM77 °FClear.9 mph12%30.15 "HgN/A
5:30 PM81 °FSunny.13 mph11%30.12 "HgN/A
5:00 PM81 °FSunny.13 mph10%30.12 "Hg10 mi
4:30 PM81 °FSunny.15 mph10%30.12 "Hg10 mi
4:00 PM81 °FSunny.14 mph10%30.12 "Hg10 mi
3:30 PM81 °FPassing clouds.13 mph10%30.12 "HgN/A
3:00 PM81 °FDuststorm.14 mph10%30.15 "HgN/A
2:30 PM81 °FSunny.13 mph10%30.15 "Hg10 mi
2:00 PM79 °FPassing clouds.13 mph12%30.18 "HgN/A
1:30 PM77 °FSunny.13 mph12%30.18 "Hg10 mi
12:30 PM75 °FSunny.13 mph14%30.21 "Hg10 mi
12:00 PM75 °FSunny.13 mph15%30.24 "Hg10 mi
Weather by CustomWeather, © 2015

See weather overviewHow to use our weather pages